[[{"header":{"parameterUnit":"m.s-1","parameterCategory":1,"la1":30.2991,"la2":30.254,"lo1":-89.0895,"lo2":-89.0444,"dy":0.0017,"dx":0.0017,"nx":28,"ny":28,"refTime":"2023-07-18T09:00:00:Z","depth":0,"parameterNumber":2,"parameterNumberName":"U-component_of_WINDS"},"data":[0,0,0,0,0,0,0,0,0,0,0,0,0,0,0,0,0,0,0,0,0,0,0,0,0,0,0,0,0,0,0,0,0,0,0,0,0,0,0,0,0,0,0,0,0,0,0,0,0,0,0,0,0,0,0,0,0,0,3.7923,3.7924,0,3.8021,3.8022,3.8023,3.7972,3.797,3.7967,3.7965,3.8064,3.8069,3.8074,0,0,0,0,0,0,0,0,0,0,0,0,0,3.7687,3.7691,3.7922,3.7924,3.7925,3.8021,3.8022,3.8023,3.7973,3.797,3.7967,3.7964,3.8063,3.8069,3.8075,0,0,0,0,0,0,0,0,0,0,0,0,0,3.7788,3.7693,3.7922,3.7911,3.7911,3.802,3.8022,3.8024,3.7974,3.797,3.7966,3.7962,3.8061,3.8068,3.8076,3.8201,0,0,3.8099,3.8102,0,0,0,0,0,0,0,0,3.7782,3.7796,3.7912,3.7912,3.7912,3.798,3.7975,3.8083,3.7975,3.795,3.7965,3.796,3.8039,3.8049,3.8076,3.8205,3.821,3.8099,3.8104,3.8107,3.8109,0,0,0,0,0,0,0,3.7775,3.7792,3.7961,3.7913,3.7914,3.79,3.791,3.7996,3.8015,3.7952,3.7948,3.7961,3.8039,3.8068,3.8077,3.8211,3.8099,3.8106,3.8111,3.8114,3.8443,3.8447,0,0,0,0,0,0,3.7769,3.7786,3.7958,3.7964,3.7836,3.7908,3.7919,3.7963,3.8014,3.8018,3.7964,3.7958,3.8057,3.8069,3.8081,3.8227,3.8107,3.8114,3.8119,3.8439,3.8444,3.8448,0,0,0,0,0,0,3.7764,3.7785,3.7954,3.7874,3.7895,3.7916,3.7965,3.7967,3.7996,3.8024,3.8026,3.7991,3.8055,3.807,3.817,3.823,3.8118,3.8125,3.8434,3.844,3.8446,3.8522,0,0,0,0,0,0,3.7758,3.7783,3.7832,3.7876,3.7899,3.8043,3.7969,3.7971,3.8009,3.8002,3.8049,3.8053,3.8053,3.8159,3.8178,3.8238,3.8131,3.8429,3.8437,3.8444,3.8514,3.853,3.8544,0,0,0,0,0,3.7749,3.7851,3.7835,3.7856,3.7961,3.8047,3.806,3.8058,3.8015,3.8063,3.808,3.8052,3.8221,3.817,3.819,3.8254,3.8425,3.8434,3.8444,3.8508,3.8527,3.8544,0,0,0,0,0,0,3.7814,3.7856,3.7839,3.7958,3.7999,3.8038,3.8099,3.8079,3.8133,3.8125,3.8119,3.813,3.8233,3.8254,3.8196,3.8375,3.8316,3.833,3.8357,3.8376,3.8391,3.8382,3.8137,0,0,0,0,0,3.7842,3.7909,3.7942,3.8044,3.8065,3.8079,3.8116,3.8111,3.8153,3.817,3.8194,3.8236,3.8297,3.8338,3.8397,3.8518,3.8525,3.8571,3.8586,3.8598,3.8609,3.867,3.869,3.8479,3.8479,3.8479,0,0,3.7901,3.7932,3.7975,3.8057,3.8089,3.8156,3.8094,3.8169,3.8218,3.8181,3.8276,3.8296,3.8341,3.845,3.85,3.8471,3.8669,3.861,3.8619,3.8624,3.8682,3.8701,3.8719,3.8486,3.8485,3.8484,0,0,3.8041,3.8074,3.8159,3.8191,3.8239,3.8247,3.8267,3.8309,3.832,3.8415,3.8387,3.8446,3.8554,3.8586,3.8616,3.8765,3.874,3.8785,3.8861,3.892,3.8936,3.8951,3.9,3.9018,3.8797,3.8797,3.8797,0,3.8108,3.821,3.8206,3.8282,3.8317,3.8287,3.8371,3.8403,3.8467,3.8491,3.8458,3.859,3.8619,3.8733,3.8769,3.8797,3.8817,3.8778,3.8935,3.8949,3.8963,3.9009,3.9028,3.8802,3.8801,3.8801,3.88,0,3.8287,3.8358,3.8421,3.8483,3.8526,3.8606,3.8612,3.8656,3.8646,3.8657,3.8752,3.8785,3.8848,3.8875,3.8868,3.8988,3.8967,3.8935,3.8875,3.8988,3.9031,3.9049,3.8809,3.8807,3.8805,3.8804,0,0,3.8471,3.8528,3.8551,3.8576,3.8625,3.8679,3.8757,3.8818,3.8854,3.8899,3.8961,3.9052,3.9021,3.9055,3.905,3.9103,3.9213,3.9063,3.9064,3.9086,3.9343,3.9364,3.9385,3.9198,3.9201,3.9204,3.9337,0,3.8612,3.8748,3.8745,3.8871,3.8933,3.8904,3.8971,3.9007,3.9018,3.9072,3.9085,3.9147,3.9104,3.9124,3.9175,3.9189,3.9264,3.918,3.9253,3.9256,3.9239,3.9409,3.9433,3.9557,3.9355,3.9358,3.936,0,3.8795,3.8844,3.8975,3.9011,3.9037,3.9098,3.9151,3.9204,3.9243,3.9248,3.9285,3.9271,3.9347,3.9286,3.9389,3.9331,3.9361,3.9372,3.9377,3.9381,3.9313,3.9414,3.9597,3.9615,3.9388,3.9386,3.9384,0,3.891,3.901,3.91,3.9124,3.9169,3.9211,3.9232,3.9268,3.9303,3.935,3.9372,3.9428,3.9457,3.9499,3.9499,3.9456,3.9602,3.9542,3.9605,3.9604,3.9635,3.9632,3.9822,3.966,3.966,3.9659,3.9659,0,3.9066,3.9146,3.9152,3.9207,3.9295,3.9291,3.9378,3.9394,3.9426,3.9482,3.946,3.9513,3.9512,3.9565,3.9565,3.9647,3.9662,3.9666,3.9664,3.9666,3.9665,3.9683,3.9673,3.9664,3.9663,3.9662,3.9661,0,3.9209,3.9217,3.9313,3.9347,3.9357,3.942,3.9449,3.95,3.9509,3.958,3.9596,3.961,3.9671,3.9676,3.9747,3.9747,3.9845,3.9837,3.9832,3.9829,3.989,3.9882,4.0095,4.012,3.9946,3.9947,3.9949,0,3.9306,3.9367,3.9407,3.9443,3.9466,3.9525,3.956,3.9557,3.9595,3.9642,3.9687,3.9745,3.9792,3.989,3.9906,3.9959,3.9948,4.0019,3.9956,3.9954,3.9945,3.9939,3.9943,4.003,4.0032,4.0034,4.0035,0,3.9476,3.9476,3.9528,3.9581,3.9624,3.9666,3.9704,3.9735,3.9736,3.9779,3.9841,3.9877,3.9948,4.0005,4.0057,4.0076,4.0055,4.0055,4.0072,4.0072,4.0065,4.0065,3.9861,4.005,4.0048,4.0047,4.0047,4.0046,3.9597,3.9647,3.9682,3.974,3.9769,3.9805,3.9853,3.9867,3.9919,3.9976,3.9972,4.0039,4.0073,4.0139,4.0163,4.0214,4.0189,4.0215,4.022,4.0225,4.023,4.006,4.0224,4.0223,4.0223,4.0222,4.0222,0,3.9761,3.9782,3.9835,3.9889,3.9934,3.9911,3.9952,3.999,4.0049,4.0083,4.0129,4.0197,4.0252,4.0271,4.0324,4.036,4.0352,4.0374,4.0369,4.0373,4.0251,4.0229,4.038,4.038,4.038,4.038,4.038,4.038,3.9852,3.9936,3.9939,4.0035,4.0055,4.0121,4.0145,4.0177,4.0203,4.0281,4.0326,4.0338,4.0365,4.0419,4.0467,4.0471,4.0489,4.0515,4.0514,4.0399,4.0383,4.0367,4.0347,4.052,4.052,4.0632,4.0633,4.0634]},{"header":{"parameterUnit":"m.s-1","parameterCategory":1,"la1":30.2991,"la2":30.254,"lo1":-89.0895,"lo2":-89.0444,"dy":0.0017,"dx":0.0017,"nx":28,"ny":28,"refTime":"2023-07-18T09:00:00:Z","depth":0,"parameterNumber":3,"parameterNumberName":"V-component_of_WINDS"},"data":[0,0,0,0,0,0,0,0,0,0,0,0,0,0,0,0,0,0,0,0,0,0,0,0,0,0,0,0,0,0,0,0,0,0,0,0,0,0,0,0,0,0,0,0,0,0,0,0,0,0,0,0,0,0,0,0,0,0,3.3259,3.326,0,3.3315,3.3316,3.3316,3.3275,3.3274,3.3272,3.327,3.3325,3.3328,3.3331,0,0,0,0,0,0,0,0,0,0,0,0,0,3.3112,3.3115,3.3259,3.326,3.3261,3.3315,3.3316,3.3317,3.3276,3.3274,3.3271,3.3269,3.3324,3.3328,3.3331,0,0,0,0,0,0,0,0,0,0,0,0,0,3.3173,3.3116,3.3259,3.3247,3.3246,3.3315,3.3316,3.3317,3.3276,3.3273,3.3271,3.3268,3.3323,3.3327,3.3332,3.3415,0,0,3.3346,3.3348,0,0,0,0,0,0,0,0,3.317,3.3178,3.3248,3.3248,3.3247,3.3286,3.3284,3.335,3.3277,3.3265,3.327,3.3267,3.3314,3.3319,3.3335,3.3417,3.342,3.3347,3.3349,3.3351,3.3353,0,0,0,0,0,0,0,3.3165,3.3176,3.3281,3.3249,3.3249,3.3237,3.3243,3.3296,3.3304,3.3266,3.3263,3.327,3.3313,3.3331,3.3336,3.3421,3.3346,3.3351,3.3354,3.3355,3.357,3.3573,0,0,0,0,0,0,3.3163,3.3173,3.3279,3.3283,3.3201,3.3242,3.3248,3.3276,3.3303,3.3305,3.3272,3.3268,3.3324,3.3331,3.3338,3.3435,3.3351,3.3356,3.3359,3.3568,3.3571,3.3574,0,0,0,0,0,0,3.316,3.3173,3.3277,3.3227,3.3239,3.3247,3.3279,3.3279,3.3296,3.3308,3.3309,3.329,3.3322,3.3332,3.3396,3.3437,3.3358,3.3362,3.3564,3.3569,3.3573,3.3632,0,0,0,0,0,0,3.3156,3.3172,3.3205,3.3228,3.3242,3.3335,3.3281,3.3282,3.3305,3.33,3.3324,3.3326,3.3321,3.3389,3.34,3.3442,3.3366,3.356,3.3566,3.3571,3.3626,3.3638,3.3647,0,0,0,0,0,3.3151,3.3219,3.3207,3.322,3.3284,3.3338,3.3346,3.334,3.3309,3.3341,3.3348,3.3325,3.343,3.3396,3.3408,3.3452,3.3558,3.3564,3.3571,3.3621,3.3635,3.3647,0,0,0,0,0,0,3.3201,3.3222,3.3209,3.3287,3.3311,3.3331,3.3372,3.3355,3.3387,3.3381,3.3371,3.3377,3.3444,3.3454,3.3415,3.3532,3.3489,3.3498,3.3523,3.3536,3.3547,3.3543,3.337,0,0,0,0,0,3.3221,3.3264,3.328,3.3348,3.336,3.3364,3.3387,3.338,3.3404,3.3414,3.3426,3.3449,3.3487,3.3512,3.3548,3.3627,3.3631,3.3663,3.3674,3.3682,3.369,3.3731,3.3745,3.3595,3.3595,3.3595,0,0,3.3263,3.328,3.3308,3.3358,3.3376,3.3419,3.3373,3.3421,3.3453,3.3421,3.3482,3.3491,3.3516,3.3588,3.362,3.3598,3.3732,3.3691,3.3698,3.3701,3.3739,3.3753,3.3766,3.36,3.3599,3.3598,0,0,3.3362,3.338,3.3437,3.3455,3.3483,3.3484,3.3498,3.352,3.3525,3.3586,3.3562,3.3599,3.3665,3.3683,3.3701,3.3804,3.3784,3.3816,3.3871,3.3911,3.3922,3.3933,3.3968,3.3981,3.3824,3.3824,3.3824,0,3.341,3.3476,3.3468,3.3518,3.354,3.3513,3.357,3.3587,3.3625,3.364,3.3615,3.3696,3.3712,3.3786,3.3811,3.3827,3.384,3.3813,3.3922,3.3932,3.3941,3.3975,3.3988,3.3828,3.3827,3.3827,3.3827,0,3.3534,3.3579,3.3622,3.3659,3.3685,3.3738,3.3737,3.3764,3.3754,3.3758,3.3819,3.3835,3.3873,3.389,3.3881,3.3963,3.3948,3.3923,3.3879,3.3959,3.399,3.4003,3.3833,3.3832,3.3831,3.383,0,0,3.3667,3.3697,3.3713,3.3728,3.3755,3.3789,3.384,3.3877,3.39,3.3926,3.3967,3.4023,3.3999,3.4019,3.4011,3.4046,3.4124,3.4016,3.4016,3.4034,3.4212,3.4231,3.4246,3.4111,3.4113,3.4115,3.421,0,3.3766,3.3855,3.3848,3.3932,3.3973,3.3946,3.399,3.401,3.4014,3.4048,3.4052,3.4091,3.4057,3.4069,3.4102,3.4108,3.4159,3.4101,3.4147,3.4149,3.4141,3.4262,3.4282,3.4371,3.4222,3.4224,3.4226,0,3.3894,3.3924,3.4012,3.403,3.4047,3.4087,3.4119,3.4152,3.4174,3.4174,3.4196,3.4181,3.423,3.4185,3.4251,3.4212,3.423,3.4235,3.4238,3.4242,3.4192,3.4268,3.44,3.4413,3.4245,3.4243,3.4242,0,3.398,3.4043,3.4103,3.4117,3.414,3.4168,3.4179,3.4198,3.422,3.4248,3.4261,3.4295,3.4312,3.4337,3.4332,3.43,3.4398,3.4354,3.4398,3.4399,3.442,3.4419,3.4556,3.4434,3.4434,3.4433,3.4433,0,3.4091,3.4145,3.4141,3.4178,3.4237,3.4228,3.4286,3.4294,3.431,3.4347,3.4326,3.436,3.4351,3.4384,3.438,3.4434,3.4443,3.4443,3.4441,3.4445,3.4444,3.4456,3.4449,3.4437,3.4436,3.4435,3.4435,0,3.4198,3.4198,3.4261,3.4278,3.4283,3.4326,3.4339,3.4373,3.4374,3.442,3.4431,3.4433,3.4471,3.4468,3.4511,3.4507,3.4574,3.4565,3.4567,3.4565,3.4609,3.4605,3.4758,3.4777,3.4643,3.4645,3.4646,0,3.4268,3.4309,3.433,3.4353,3.4366,3.4404,3.4425,3.4417,3.4441,3.4467,3.4497,3.4533,3.4562,3.4623,3.4628,3.466,3.4651,3.4702,3.4655,3.4657,3.465,3.4647,3.465,3.4711,3.4713,3.4714,3.4715,0,3.4393,3.439,3.4423,3.4456,3.4483,3.4508,3.4531,3.455,3.4544,3.4571,3.461,3.4632,3.4675,3.471,3.474,3.475,3.4731,3.4729,3.4741,3.4745,3.4744,3.4744,3.4591,3.4726,3.4725,3.4724,3.4724,3.4723,3.4483,3.4517,3.4536,3.4573,3.4589,3.4611,3.4642,3.4648,3.468,3.4715,3.4707,3.475,3.4768,3.4807,3.4819,3.4851,3.4833,3.485,3.4854,3.4859,3.4863,3.4739,3.4857,3.4857,3.4856,3.4856,3.4856,0,3.4605,3.4615,3.4649,3.4682,3.471,3.469,3.4714,3.4738,3.4777,3.4795,3.4824,3.4867,3.4901,3.4907,3.4939,3.4963,3.4955,3.4972,3.497,3.4972,3.4879,3.4865,3.4978,3.4978,3.4978,3.4978,3.4978,3.4978,3.4671,3.4728,3.4727,3.479,3.48,3.4843,3.4858,3.4876,3.4891,3.4941,3.4969,3.4973,3.4986,3.5018,3.5047,3.5048,3.506,3.508,3.5078,3.4991,3.4979,3.4967,3.4954,3.5083,3.5083,3.5168,3.5168,3.5169]}]]